TimePST,TemperatureF,Dew PointF,Humidity,Sea Level PressureIn,VisibilityMPH,Wind Direction,Wind SpeedMPH,Gust SpeedMPH,PrecipitationIn,Events,Conditions,WindDirDegrees,DateUTC
12:56 AM,39.9,37.9,93,29.72,10.0,SSE,9.2,-,0.00,,Overcast,160,2013-02-19 08:56:00
2:33 AM,39.2,37.4,93,29.69,10.0,SE,8.1,-,0.00,,Overcast,140,2013-02-19 10:33:00
2:49 AM,39.2,37.4,93,29.70,10.0,SSE,6.9,-,0.00,,Overcast,150,2013-02-19 10:49:00
2:56 AM,39.9,37.9,93,29.70,10.0,SSE,5.8,-,0.00,,Overcast,160,2013-02-19 10:56:00
3:18 AM,39.2,37.4,93,29.69,10.0,SE,8.1,-,N/A,,Overcast,140,2013-02-19 11:18:00
3:56 AM,37.0,36.0,96,29.68,10.0,ESE,4.6,-,N/A,,Partly Cloudy,110,2013-02-19 11:56:00
4:56 AM,35.1,34.0,96,29.68,10.0,WNW,3.5,-,N/A,,Partly Cloudy,290,2013-02-19 12:56:00
5:56 AM,34.0,34.0,100,29.69,10.0,Calm,Calm,-,N/A,,Mostly Cloudy,0,2013-02-19 13:56:00
6:56 AM,37.0,36.0,96,29.69,10.0,NW,5.8,-,N/A,,Overcast,310,2013-02-19 14:56:00
7:56 AM,37.9,37.0,97,29.71,10.0,NW,4.6,-,N/A,,Overcast,320,2013-02-19 15:56:00
8:56 AM,39.9,37.9,93,29.73,10.0,North,4.6,-,N/A,,Overcast,10,2013-02-19 16:56:00
9:56 AM,42.1,37.9,85,29.75,10.0,Calm,Calm,-,N/A,,Overcast,0,2013-02-19 17:56:00
10:56 AM,44.1,39.0,82,29.76,10.0,NW,6.9,-,N/A,,Overcast,320,2013-02-19 18:56:00
11:56 AM,48.0,39.0,71,29.77,10.0,NNW,8.1,-,N/A,,Mostly Cloudy,330,2013-02-19 19:56:00
12:56 PM,50.0,39.0,66,29.78,10.0,NW,6.9,-,N/A,,Scattered Clouds,320,2013-02-19 20:56:00
1:56 PM,52.0,36.0,54,29.79,10.0,Variable,6.9,-,N/A,,Mostly Cloudy,0,2013-02-19 21:56:00
2:56 PM,52.0,36.0,54,29.80,10.0,West,10.4,-,N/A,,Mostly Cloudy,280,2013-02-19 22:56:00
4:56 PM,48.0,37.0,66,29.83,10.0,WNW,6.9,-,N/A,,Mostly Cloudy,300,2013-02-20 00:56:00
5:56 PM,45.0,36.0,71,29.85,10.0,West,5.8,-,N/A,,Mostly Cloudy,270,2013-02-20 01:56:00
6:56 PM,45.0,37.9,76,29.90,10.0,East,5.8,-,N/A,,Overcast,80,2013-02-20 02:56:00
7:56 PM,43.0,37.0,80,29.92,10.0,NW,3.5,-,N/A,,Partly Cloudy,310,2013-02-20 03:56:00
8:56 PM,42.1,36.0,79,29.94,10.0,WSW,3.5,-,N/A,,Scattered Clouds,250,2013-02-20 04:56:00
9:56 PM,39.0,35.1,86,29.97,10.0,Calm,Calm,-,N/A,,Mostly Cloudy,0,2013-02-20 05:56:00
10:56 PM,36.0,34.0,93,29.99,10.0,Calm,Calm,-,N/A,,Clear,0,2013-02-20 06:56:00
11:56 PM,35.1,32.0,89,30.01,10.0,Calm,Calm,-,N/A,,Scattered Clouds,0,2013-02-20 07:56:00